User: anonymous   Login
Location: Churchill
(58.7670°N, 94.1670°W)
Time: 15:57:25
(UTC-05:00)
Language:

Cosmos 1315 Rocket - Orbit

View from above orbital plane
View from above orbital plane
View from above satellite
View from above satellite

Ground track
Ground track

The orbit data is extracted from the following two-line orbital elements,

1 12904U 81103B   17084.95229054 +.00000423 +00000-0 +27825-4 0  9992
2 12904 081.1803 010.6219 0028127 341.2207 018.7975 15.05223400480086
Epoch (UTC): 25 March 2017 22:51:17
Eccentricity: 0.0028127
inclination: 81.1803°
perigee height: 531 km
apogee height: 570 km
right ascension of ascending node: 10.6219°
argument of perigee: 341.2207°
revolutions per day: 15.05223400
mean anomaly at epoch: 18.7975°
orbit number at epoch: 48008

The dashed part of the orbit path shows where the satellite is in the earth's shadow,  

DLR